Showing default

SUPERVIEW NEO-1 01, 52320

Orbit data source: Space-Track

SUPERVIEW NEO-1 01, 52320 is a payload satellite owned by Siwei (CN) in SSO that was launched on Fri, 29 Apr 2022 UTC via a CHANG ZHENG 2C launch vehicle from the Jiuquan Satellite Launch Center, China (JSC). Payload-class satellites include a variety of spacecraft equipped with specific instruments for various scientific and technological missions. These include communications satellites like Starlink; space stations such as the ISS; scientific satellites like the Hubble; Earth observation satellites from companies like Planet Labs, Umbra, and HawkEye 360; GPS; miniature CubeSats for education and research; and military/defense satellites.

Loading next visibility...
Identifier
52320, 2022-043A
Orbit
SSO
Country
Flag of CNCN / PRC
Related business
Manufacturer
DFH
Mission
Operational Commercial Imaging
Bus & Motor
SIWEI, Unknown motor
Mass
540 kg wet, ~500 kg dry
Launch date (UTC)
2022-04-29 (4 years ago)
Launch vehicle
CHANG ZHENG 2C
Launch site
Jiuquan Satellite Launch Center, China (JSC)
Object type
Payload
Rocket body
Debris
Shape & HBR
Box, 0.3 m
Radar Cross Section
0.375 m², Large (>1 m²)

Expand to show TLE details & history
Last TLE update: 23 hours ago

TLE from 23 hours ago
0 SUPERVIEW NEO-1 01
1 52320U 22043A   26172.49897994  .00003420  00000-0  17864-3 0  9998
2 52320  97.3401 245.1413 0000297 208.3716 151.7502 15.16546212230215
Epoch: 2026-06-21T11:58Z
TLE epoch observation values (Epoch: 2026-06-21T11:58:31.866Z)
Latitude
0.00003°
Longitude
155.81014°
Altitude
519.556 km
Speed
7.604 km/s
True Right ascension
16h 20m 33s
True Declination
0° 00' 00"
Sunlit
Object was in full shadow at epoch
Visualization orbit readout
Latitude
Unknown
Longitude
Unknown
Altitude
Unknown
Speed
Unknown
Apparent Right ascension
Unknown
Apparent Declination
Unknown
Sunlit
N/A
Visualization observer readout
Local Sidereal Time
21:47:22
Azimuth
Unknown
Elevation
Unknown
Doppler factor
Unknown
Orbital elements
Apogee altitude
513.461 km
Perigee altitude
513.051 km
Semi-major axis
6,891.393 km
Eccentricity
0.00003
Inclination
97.3401°
RAAN
245.1413°
Arg. of periapsis
208.3716°
True anomaly
151.75181°
Mean anomaly
151.7502°
Eccentric anomaly
151.75101°
Mean motion
3.79387 °/min
Orbital period
94.89 mins
BSTAR
0.00017864
Loading maneuver chart data...
Computing Atmospheric mass density...
Loading historical data...
Loading historical data...
Loading historical data...
Loading historical data...
Loading historical data...
Loading historical data...
Loading historical data...

Documentation

Showing up to 5 results
|